Tracking 20942 objects as of 13-Jul-2020
HD Live streaming from Space Station
objects crossing your sky now

METEOR PRIRODA

Track METEOR PRIRODA now!
10-day predictions
METEOR PRIRODA is classified as:


NORAD ID: 12585
Int'l Code: 1981-065A
Perigee: 496.8 km
Apogee: 518.7 km
Inclination: 97.5 °
Period: 94.6 minutes
Semi major axis: 6878 km
RCS: 4.6163 m2 (large)
Launch date: July 10, 1981
Source: Commonwealth of Independent States (former USSR) (CIS)
Launch site: TYURATAM MISSILE AND SPACE COMPLEX (TTMTR)
aabbcc
Your satellite tracking list
Your tracking list is empty




NASA's NSSDC Master Catalog

Two Line Element Set (TLE):
1 12585U 81065A   20195.49337458 +.00000318 +00000-0 +17158-4 0  9999
2 12585 097.5481 184.1618 0015933 079.2600 281.0429 15.21726693127065
Source of the keplerian elements: AFSPC